Regional Weather Roundup
Issued by NWS

Home | Current Version | Previous Version | Text Only | Print | Product List | Glossary Off
Versions: 1 2 3 4 5 6 7 8 9 10 11 12 13 14 15 16 17 18 19 20 21 22 23 24 25 26 27 28 29 30 31 32 33 34 35 36 37 38 39 40 41 42 43 44 45 46 47 48 49 50

000
ASUS43 KDMX 190501
RWRIA

WEATHER ROUNDUP FOR IOWA
NATIONAL WEATHER SERVICE DES MOINES IA
1100 PM CST THU JAN 18 2018

NOTE: "FAIR" INDICATES FEW OR NO CLOUDS BELOW 12,000 FEET WITH NO
SIGNIFICANT WEATHER AND/OR OBSTRUCTIONS TO VISIBILITY.

* - THESE STATIONS ARE NOT NWS STATIONS...THUS NOT UNDER NWS
QUALITY CONTROL.  THEY ALSO DO NOT REPORT WEATHER SUCH
AS PRECIPITATION OR FOG.

IAZ001>003-012>014-020>022-031>034-043>046-190600-
   NORTHWEST IOWA

CITY           SKY/WX    TMP DP  RH WIND       PRES   REMARKS
CARROLL *      CLOUDY    30  23  74 SW15      29.85F WCI  19
CHEROKEE *     CLOUDY    27  24  89 S3        29.84S
DENISON *      CLOUDY    28  21  74 S7        29.88F WCI  21
LE MARS *      CLOUDY    27  25  93 S7        29.81F WCI  19
ORANGE CITY *  CLOUDY    28  25  86 S6        29.80S WCI  22
SHELDON *      CLOUDY    30  27  86 S7        29.79S WCI  23
SIOUX CITY     CLOUDY    26  24  92 SE8       29.83F WCI  18
SPENCER        CLOUDY    30  24  78 SW9       29.81S WCI  22
STORM LAKE *   CLOUDY    28  25  86 SW18      29.82S WCI  16
$$

IAZ055>058-069>071-079>083-090>094-190600-
   SOUTHWEST IOWA

CITY           SKY/WX    TMP DP  RH WIND       PRES   REMARKS
ATLANTIC *     CLOUDY    25  23  93 S7        29.90F WCI  17
AUDUBON *      CLOUDY    28  23  80 S5        29.89S WCI  23
CLARINDA *     CLOUDY    28  25  86 S7        29.95F WCI  21
COUNCIL BLFS * CLOUDY    34  25  69 S12       29.87F WCI  25
CRESTON *      CLOUDY    30  23  74 SW12      29.93F WCI  21
HARLAN  *      CLOUDY    27  23  86 SW9       29.91F WCI  17
LAMONI         CLOUDY    30  21  69 S12       29.95F WCI  20
RED OAK *      CLOUDY    28  23  80 S5        29.92F WCI  23
SHENANDOAH *   CLOUDY    30  23  74 S8        29.93F WCI  23
$$

IAZ047>049-059>061-072>074-084-190600-
   CENTRAL IOWA

CITY           SKY/WX    TMP DP  RH WIND       PRES   REMARKS
AMES           CLOUDY    25  21  85 S7        29.90F WCI  17
ANKENY *       CLOUDY    32  23  69 SW8       29.92F WCI  25
BOONE *        CLOUDY    28  23  80 SW9       29.87F WCI  20
CHARITON *     CLOUDY    30  21  69 S13       29.94F WCI  20
DES MOINES     CLOUDY    30  21  69 S7        29.91F WCI  23
GRINNELL*      CLOUDY    29  22  75 SW12      29.93F WCI  19
KNOXVILLE *    CLOUDY    34  21  60 SW14G20   29.92F WCI  24
MARSHALLTOWN   CLOUDY    28  21  75 S10       29.89F WCI  19
NEWTON *       CLOUDY    30  23  74 SW12      29.92F WCI  21
PELLA *        PTCLDY    34  22  62 SW12      29.95F WCI  25
$$

IAZ004>006-015-016-023>025-035-036-190600-
   NORTH CENTRAL IOWA

CITY           SKY/WX    TMP DP  RH WIND       PRES   REMARKS
ALGONA *       CLOUDY    25 N/A N/A S12       29.82S WCI  14
CLARION *      CLOUDY    25  25 100 S9        29.85F WCI  15
ESTHERVILLE    CLOUDY    30  25  81 SW13      29.79S WCI  20
FORT DODGE *   CLOUDY    27  21  78 S9        29.86S WCI  18
MASON CITY     CLOUDY    28  20  71 SW15      29.83F WCI  16
FOREST CITY *    N/A     28  23  80 SW10      29.83S WCI  19
WEBSTER CITY * CLOUDY    27  21  80 S10       29.84F WCI  17
IOWA FALLS *     N/A     28  23  80 S10       29.88F WCI  19
$$

IAZ007>011-017>019-026>030-037>042-050>054-066-190600-
   NORTHEAST IOWA

CITY           SKY/WX    TMP DP  RH WIND       PRES   REMARKS
CEDAR RAPIDS     N/A     27  20  75 S9        29.93F WCI  18
CHARLES CITY *   N/A     25  23  93 S9        29.85F WCI  15
CLINTON *        N/A     27  21  78 SW12      29.97F WCI  17
DECORAH *        N/A     28  21  74 SW8G15    29.84S WCI  20
DUBUQUE          N/A     26  18  71 SW15      29.90S WCI  14
MONTICELLO *     N/A     28  21  74 S8        29.92F WCI  20
OELWEIN *        N/A     25  23  93 S13       29.88F WCI  13
WATERLOO         N/A     27  20  75 SW10      29.89F WCI  17
$$

IAZ064-065-067-068-078-190600-
   EAST CENTRAL IOWA

CITY           SKY/WX    TMP DP  RH WIND       PRES   REMARKS
DAVENPORT        N/A     32  20  61 SW15      29.99F WCI  22
IOWA CITY        N/A     29  20  69 S5        29.98F WCI  24
MT. PLEASANT * CLOUDY    30  21  69 SW12      30.00S WCI  21
MUSCATINE *      N/A     30  21  69 S9        30.00S WCI  22
QUAD CITIES      N/A     31  20  63 SW7       29.98F WCI  24
$$

IAZ062-063-075>077-085>089-095>099-190600-
   SOUTHEAST IOWA

CITY           SKY/WX    TMP DP  RH WIND       PRES   REMARKS
BURLINGTON     CLOUDY    30  19  63 SW13      30.00F WCI  20
FAIRFIELD *    CLOUDY    32  19  59 SW12      29.97F WCI  23
FORT MADISON * CLOUDY    34  21  60 SW12      30.01F WCI  25
KEOKUK *       CLOUDY    32  21  64 SW12      30.02F WCI  23
OSKALOOSA *      N/A     30  22  71 SW12      29.97S WCI  21
OTTUMWA        CLOUDY    33  20  58 SW10      29.96S WCI  25
WASHINGTON *   CLOUDY    30  23  74 SW13      29.98F WCI  20
$$

ABBREVIATIONS USED IN REMARKS
   TC - TEMPERATURES IN CELSIUS
  WCI - WIND CHILL INDEX
   HX - HEAT INDEX
  VSB - VISIBILITY
$$





USA.gov is the U.S. government's official web portal to all federal, state and local government web resources and services.